Terug naar catalogus

STARLINK-32031

ActiefCommunicatieVLEO
NORAD 60142·PAYLOAD·🇺🇸 United States

Gelanceerd Jun 27, 2024 vanaf Cape Canaveral Space Force Station

Loading…

Volgende Passages (komende 24 uur)

TLE

VersSource: CelesTrak SupGP

Epoch: Sep 14, 2026, 20:35 UTC

1 60142C 24120H   26257.85812500 -.00033065  00000+0 -97672-3 0  2572
2 60142  53.1567 157.7485 0001314  86.0438  79.6647 15.34413817    14

Volg STARLINK-32031 in realtime met AllMySat

Download on the App Store